Regional Weather Roundup
Issued by NWS Upton, NY

Current Version | Previous Version | Text Only | Print | Product List | Glossary On
Versions: 1 2 3 4 5 6 7 8 9 10 11 12 13 14 15 16 17 18 19 20 21 22 23 24 25 26 27 28 29
000
ASUS41 KOKX 310705
RWROKX
REGIONAL WEATHER ROUNDUP
NATIONAL WEATHER SERVICE NEW YORK NY
300 AM EDT FRI OCT 31 2014

NOTE: "FAIR" INDICATES FEW OR NO CLOUDS BELOW 12,000 FEET WITH NO
SIGNIFICANT WEATHER AND/OR OBSTRUCTIONS TO VISIBILITY.

NYZ071-072-176-178-NJZ106-104-310800-
NEW YORK CITY METRO AREA


CITY           SKY/WX    TMP DP  RH WIND       PRES   REMARKS
CENTRAL PARK   CLEAR     47  36  65 VRB5      30.04S
LAGUARDIA APRT PTCLDY    47  37  68 N8        30.02S
KENNEDY INTL   PTCLDY    47  37  68 N7        30.02S
NEWARK/LIBERTY PTCLDY    42  34  73 N7        30.02S
BRNX BOT. GARD   N/A     43  34  70 E5        30.04S
TETERBORO      CLEAR     42  35  76 CALM      30.02S
$$

NYZ177-179-078>081-310800-
LONG ISLAND NEW YORK

CITY           SKY/WX    TMP DP  RH WIND       PRES   REMARKS
FARMINGDALE    CLOUDY    45  38  76 N7        30.01S
ISLIP          CLOUDY    46  37  71 N6        29.99F
SHIRLEY        PTCLDY    44  37  76 N7        30.01F
WESTHAMPTON    PTCLDY    34  32  92 N3        30.02S
MONTAUK POINT    N/A     50  40  68 N8        30.01S
$$

NYZ052-065-067-310800-
HUDSON VALLEY

CITY           SKY/WX    TMP DP  RH WIND       PRES   REMARKS
WHITE PLAINS   CLEAR     43  32  65 N7        30.00S
NEWBURGH       NOT AVBL
MONTGOMERY     CLEAR     34  32  92 CALM      30.02S
POUGHKEEPSIE   CLOUDY    42  35  76 CALM      30.02F
ALBANY         PTCLDY    33  30  88 CALM      30.04S
$$

NJZ001-105-106-008-010-013-015-019>022-104-310800-
NEW JERSEY

CITY           SKY/WX    TMP DP  RH WIND       PRES   REMARKS
NEWARK/LIBERTY PTCLDY    42  34  73 N7        30.02S
TETERBORO      CLEAR     42  35  76 CALM      30.02S
CALDWELL       PTCLDY    35  31  85 CALM      30.03S
MORRISTOWN     CLEAR     34  32  93 CALM      30.03S
SOMERVILLE     CLEAR     31  28  89 CALM      30.01S
SUSSEX         CLEAR     31  28  89 CALM      30.03S
ANDOVER          N/A     31  29  92 CALM      30.02F
TRENTON        CLEAR     37  32  82 CALM      30.02S
MILLVILLE      CLEAR     36  33  89 CALM      30.01F
ATLANTIC CITY  CLEAR     38  34  85 CALM      30.01F
WRIGHTSTOWN    CLEAR     39  34  84 NW1       30.00S
TOMS RIVER     CLEAR     30  28  93 CALM      30.02S
BELMAR         CLEAR     39  30  70 NW5       30.00F
$$

PAZ047>061-062-071-310800-
EASTERN PENNSYLVANIA

CITY           SKY/WX    TMP DP  RH WIND       PRES   REMARKS
PHILADELPHIA   CLEAR     42  34  73 N3        30.03F
ALLENTOWN      CLEAR     32  29  88 NW3       30.03F
SCRANTON       CLEAR     35  29  78 E7        30.02S WCI  29
$$

CTZ002-004>006-009-010-012-RIZ004-006-007-MAZ004-011-015-310800-
SOUTHERN NEW ENGLAND
 IN CT

CITY           SKY/WX    TMP DP  RH WIND       PRES   REMARKS
BRADLEY INTL   CLEAR     36  32  85 CALM      30.01S
HARTFORD       PTCLDY    37  35  92 SE8       30.03R WCI  31
DANBURY        CLOUDY    43  31  62 N3        30.03S
WTRBRY/OXFORD  PTCLDY    39  28  65 N8        30.03S WCI  34
BRIDGEPORT     PTCLDY    45  33  63 N12       30.01S
MERIDEN        CLEAR     34  32  92 S3        30.03R
NEW HAVEN      CLEAR     45  34  65 N7        30.02S
CHESTER        FAIR      41  34  75 N6        30.01S
GROTON         MOCLDY    42  37  82 N8        30.00S
WILLIMANTIC    MOCLDY    36  33  89 CALM      30.02R

 IN RI

CITY           SKY/WX    TMP DP  RH WIND       PRES   REMARKS
PROVIDENCE     CLOUDY    43  37  79 N3        30.00S
BLOCK ISLAND   CLEAR     48  37  66 N10       29.98S
WESTERLY       MOCLDY    37  34  89 NE3       30.00S

 IN MA

CITY           SKY/WX    TMP DP  RH WIND       PRES   REMARKS
BOSTON         CLOUDY    46  39  76 N8        30.01R
WORCESTER      CLOUDY    43  35  73 N6        29.99S
WESTFIELD      CLEAR     38  32  79 CALM      30.01S
PROVINCETOWN   CLOUDY    50  -2  11 NE12G17   29.99S
NANTUCKET      CLEAR     45  41  86 NE5       29.97R
$$

ANZ330-335-338-340-345-350-353-355-310800-
COASTAL MARINE OBSERVATIONS


STATION/POSITION TIME  SKY/WX   TEMP    WIND        PRES    VSBY  WAVE
                                AIR SEA DIR/SP/G                  HT/PER
                 (UTC)          (F)     (DEG/KT/KT) (MB)    (MI)  (FT/S)
NY HARB ENTRANCE 0700            51 60   20/ 14/ 17 1016.0          2/ 3
4S FIRE IS       0700               62                N/A           2/ 3
20S FIRE ISLAND  0700            53 62   30/ 16/ 19 1015.2          2/ 7
23SW MTP         0700                                 N/A           2/ 3
HUDSON CANYON    0700            56 64  350/  8/ 10 1014.8          2/ 4
EXECUTION ROCKS  0700            48 60   10/ 10/ 16   N/A
WESTERN LI SOUND 0700            48     360/ 10/ 12   N/A           0
CENTRAL LI SOUND 0600            49 61  360/ 17/ 19   N/A           2/ 3
EASTERN LI SOUND 0600            49 61  360/ 14/ 17   N/A
ROBBINS REEF     0600            47     350/  9/ 12 1015.2
$$


>>>>>>>>>>>>>>>>>>>>>>>>>>>> KEY <<<<<<<<<<<<<<<<<<<<<<<<<<<
>                                                          <
>     SKY/WX - SKY CONDITION/PRESENT WEATHER               <
>     TMP    - TEMPERATURE IN FAHRENHEIT                   <
>     DP     - DEWPOINT IN FAHRENHEIT                      <
>     RH     - RELATIVE HUMIDITY IN PERCENT                <
>     WIND   - DIRECTION AND SPEED IN MPH                  <
>     PRES   - MEAN SEA LEVEL PRESSURE IN INCHES OF HG     <
>     WCI    - WIND CHILL INDEX                            <
>     VSB    - VISIBILITY IN MILES                         <
>     HX     - HEAT INDEX                                  <
>     TC     - TEMPERATURE IN CELSIUS                      <
>     VRB    - VARIABLE WIND DIRECTION                     <
>                                                          <
>>>>>>>>>>>>>>>>>>>>>>>>>>>> KEY <<<<<<<<<<<<<<<<<<<<<<<<<<<





USA.gov is the U.S. government's official web portal to all federal, state and local government web resources and services.